Total_Precipitation_Accumulation
1.01 1.25 1.82 2.62 3.47 2.88 2.19 1.88 1.49 1.23 1.02 0.89 0.79 0.80 0.98 1.21 1.71 2.44 2.69 2.40 1.73 1.60 1.96 2.64 2.80 2.59 2.31 1.97 1.94 2.05 2.08 2.28 2.17 1.92 1.67 1.46 1.32 1.20 1.20 1.19 1.16 1.09 0.97 1.00 1.05 1.01 0.97 0.98 0.94
0.98 1.77 2.39 3.38 3.44 2.43 2.13 1.93 1.59 1.10 0.82 0.63 0.54 0.71 0.88 0.83 1.02 1.80 2.64 2.53 1.68 1.46 1.71 2.20 2.54 2.45 2.23 2.02 1.99 2.08 2.04 1.98 1.90 1.67 1.42 1.32 1.28 1.21 1.15 1.20 1.21 1.07 0.95 0.93 0.97 1.04 0.99 0.93 0.88
1.11 1.97 2.65 3.11 2.49 2.09 2.05 1.82 1.40 0.95 0.70 0.57 0.49 0.54 0.78 1.08 1.31 2.03 2.40 1.79 1.42 1.24 1.59 2.17 2.52 2.33 2.07 1.90 1.92 1.95 2.00 1.91 1.76 1.66 1.49 1.36 1.33 1.28 1.26 1.27 1.24 1.06 0.90 0.83 0.92 0.98 0.94 0.87 0.79
1.48 2.29 2.61 2.41 1.95 1.55 1.47 1.47 1.07 0.84 0.60 0.43 0.43 0.59 0.81 1.28 1.54 1.93 1.98 1.47 1.27 1.22 1.52 1.81 2.06 1.93 1.76 1.74 1.75 1.65 1.52 1.50 1.65 1.71 1.55 1.44 1.32 1.23 1.21 1.22 1.11 0.93 0.83 0.82 0.88 0.91 0.87 0.83 0.72
1.82 2.50 2.56 2.07 1.71 1.45 1.27 1.10 0.86 0.76 0.66 0.53 0.46 0.82 1.27 1.56 1.69 1.70 1.66 1.37 1.26 1.46 1.75 1.72 1.84 1.74 1.68 1.61 1.55 1.43 1.43 1.52 1.70 1.67 1.55 1.45 1.28 1.15 1.13 1.06 0.90 0.75 0.72 0.77 0.94 0.96 0.81 0.76 0.70
2.28 2.48 2.79 2.21 1.78 1.48 1.35 1.03 0.78 0.67 0.60 0.50 0.51 0.84 1.44 1.78 1.77 1.72 1.64 1.48 1.36 1.40 1.57 1.62 1.79 1.70 1.55 1.41 1.41 1.30 1.36 1.61 1.74 1.68 1.62 1.63 1.36 1.14 1.02 0.94 0.84 0.71 0.65 0.71 0.86 0.91 0.79 0.71 0.75
2.45 2.57 2.37 1.87 1.75 1.82 1.41 0.89 0.78 0.72 0.70 0.56 0.46 0.81 1.43 1.84 1.60 1.40 1.41 1.29 1.27 1.25 1.30 1.24 1.31 1.40 1.35 1.33 1.42 1.41 1.50 1.62 1.65 1.55 1.51 1.49 1.17 0.94 0.85 0.82 0.81 0.76 0.76 0.80 0.84 0.90 0.84 0.80 0.83
1.69 1.86 1.85 1.75 1.80 1.78 1.21 0.76 0.65 0.60 0.66 0.45 0.41 0.73 1.31 1.50 1.28 1.30 1.26 1.22 1.23 1.20 1.15 1.01 1.03 1.22 1.34 1.33 1.41 1.51 1.56 1.53 1.61 1.47 1.37 1.24 0.95 0.79 0.79 0.73 0.73 0.71 0.74 0.82 0.86 0.89 0.85 0.81 0.82
1.56 1.86 2.10 1.97 1.73 1.51 1.05 0.83 0.61 0.44 0.47 0.42 0.37 0.45 0.68 0.86 0.98 1.15 1.22 1.17 1.30 1.19 1.07 1.00 0.89 0.94 1.13 1.26 1.27 1.50 1.57 1.52 1.41 1.36 1.33 1.10 0.76 0.66 0.70 0.68 0.83 0.80 0.85 0.90 0.92 0.89 0.83 0.77 0.71
1.54 1.93 1.98 1.46 1.12 1.06 0.97 0.84 0.68 0.63 0.66 0.56 0.49 0.48 0.54 0.69 0.86 0.97 1.05 1.07 1.13 1.13 0.96 0.90 0.84 0.80 0.80 0.86 1.14 1.51 1.35 1.28 1.06 1.04 1.02 0.96 0.87 0.82 0.67 0.75 0.96 0.97 0.96 0.95 0.93 0.88 0.74 0.59 0.53
1.25 1.37 1.26 1.16 0.85 0.72 0.86 0.82 0.63 0.67 0.76 0.58 0.54 0.52 0.54 0.64 0.69 0.76 0.87 0.90 0.91 0.97 0.92 0.84 0.75 0.70 0.72 0.81 0.91 1.10 1.17 1.18 1.04 0.89 0.88 0.95 0.91 0.80 0.68 0.65 0.72 0.81 0.88 0.80 0.76 0.74 0.58 0.53 0.57
1.10 1.01 0.88 0.85 0.68 0.69 0.88 0.76 0.64 0.73 0.69 0.45 0.37 0.40 0.52 0.59 0.58 0.59 0.71 0.85 0.90 0.93 0.93 0.87 0.77 0.72 0.69 0.68 0.66 0.74 0.78 0.83 0.85 0.79 0.77 0.89 0.85 0.79 0.76 0.75 0.70 0.71 0.76 0.82 0.79 0.74 0.65 0.60 0.62
1.02 0.95 0.77 0.63 0.67 0.70 0.77 0.80 0.70 0.70 0.58 0.47 0.40 0.49 0.55 0.55 0.54 0.55 0.62 0.75 0.82 0.86 0.92 0.89 0.78 0.71 0.72 0.71 0.62 0.61 0.68 0.72 0.74 0.79 0.74 0.76 0.81 0.80 0.75 0.72 0.76 0.77 0.75 0.79 0.80 0.70 0.64 0.64 0.61
0.95 0.89 0.81 0.68 0.68 0.72 0.78 0.81 0.76 0.82 0.64 0.53 0.44 0.50 0.52 0.54 0.55 0.57 0.60 0.69 0.74 0.75 0.90 0.94 0.84 0.79 0.76 0.71 0.63 0.62 0.68 0.74 0.73 0.65 0.61 0.66 0.69 0.72 0.80 0.83 0.83 0.83 0.83 0.91 0.90 0.70 0.71 0.76 0.72
0.84 0.89 0.88 0.80 0.79 0.78 0.81 1.01 0.93 0.85 0.73 0.70 0.57 0.49 0.50 0.50 0.50 0.56 0.55 0.62 0.70 0.78 0.90 0.90 0.87 0.96 0.87 0.78 0.75 0.67 0.71 0.76 0.78 0.77 0.72 0.73 0.73 0.75 0.83 0.90 0.92 0.91 0.88 0.93 1.16 1.03 0.79 0.76 0.76
0.97 1.06 1.22 0.88 0.78 0.82 0.96 1.18 0.88 0.86 0.83 0.90 0.73 0.59 0.54 0.51 0.49 0.48 0.50 0.60 0.64 0.81 0.89 0.98 0.89 0.98 0.96 0.90 0.90 0.84 0.84 0.89 0.89 0.89 0.90 0.84 0.84 0.87 0.95 0.99 0.90 0.95 1.03 1.07 1.24 1.31 1.01 0.82 0.82
1.13 1.21 1.19 0.93 0.71 0.74 0.85 0.96 0.79 0.75 0.72 0.76 0.72 0.64 0.62 0.50 0.46 0.43 0.45 0.51 0.58 0.75 0.84 0.98 1.01 0.99 1.04 1.07 1.08 1.03 0.99 1.00 0.98 0.97 0.93 0.94 0.97 1.03 1.10 1.11 1.05 1.04 1.06 1.16 1.16 1.38 1.36 1.17 1.06
1.08 0.96 0.91 0.82 0.71 0.72 0.73 0.65 0.64 0.63 0.65 0.61 0.63 0.59 0.54 0.47 0.46 0.44 0.40 0.42 0.49 0.66 0.78 0.90 1.05 1.17 1.25 1.28 1.33 1.31 1.22 1.14 1.16 1.18 1.14 1.16 1.23 1.19 1.25 1.28 1.28 1.35 1.33 1.31 1.25 1.45 1.57 1.38 1.35
0.74 0.73 0.75 0.64 0.57 0.60 0.55 0.49 0.54 0.57 0.61 0.54 0.55 0.54 0.45 0.40 0.44 0.42 0.36 0.39 0.43 0.54 0.64 0.80 1.16 1.60 1.79 1.69 1.67 1.71 1.77 1.74 1.63 1.60 1.57 1.61 1.61 1.61 1.66 1.63 1.62 1.59 1.54 1.59 1.59 1.84 2.20 1.74 1.51
0.69 0.75 0.76 0.66 0.48 0.48 0.48 0.42 0.43 0.49 0.51 0.47 0.44 0.47 0.41 0.37 0.35 0.33 0.30 0.34 0.39 0.56 0.72 0.83 1.12 1.57 1.77 1.88 2.00 2.20 2.37 2.24 2.09 2.07 2.02 2.08 2.09 2.24 2.20 2.19 2.19 2.11 2.11 2.09 2.01 2.12 2.43 2.08 1.83
0.68 0.71 0.71 0.64 0.50 0.44 0.43 0.45 0.41 0.46 0.41 0.39 0.38 0.39 0.35 0.29 0.27 0.28 0.28 0.33 0.37 0.50 0.64 0.77 0.97 1.27 1.62 1.87 2.14 2.42 2.64 2.61 2.48 2.31 2.28 2.34 2.39 2.53 2.66 2.64 2.70 2.53 2.40 2.44 2.36 2.32 2.50 2.56 2.27
0.71 0.48 0.44 0.44 0.58 0.60 0.45 0.68 0.49 0.47 0.43 0.38 0.38 0.38 0.36 0.30 0.29 0.33 0.31 0.33 0.37 0.46 0.56 0.74 0.95 1.18 1.41 1.63 2.03 2.46 2.74 2.84 2.74 2.64 2.60 2.55 2.56 2.61 2.81 2.84 2.95 2.79 2.67 2.64 2.56 2.37 2.52 2.83 2.75
0.53 0.41 0.41 0.43 0.53 0.50 0.35 0.49 0.48 0.40 0.42 0.37 0.34 0.33 0.33 0.31 0.32 0.36 0.37 0.41 0.47 0.50 0.57 0.72 0.89 1.11 1.34 1.56 1.89 2.27 2.53 2.74 2.88 2.72 2.59 2.60 2.63 2.66 2.78 2.91 3.01 2.87 2.74 2.68 2.79 2.69 2.63 2.56 2.56
0.41 0.44 0.44 0.46 0.53 0.58 0.29 0.41 0.54 0.38 0.34 0.35 0.31 0.28 0.29 0.32 0.38 0.43 0.53 0.59 0.61 0.57 0.62 0.73 0.86 1.02 1.17 1.29 1.49 1.70 2.04 2.27 2.60 2.60 2.53 2.65 2.63 2.55 2.49 2.65 2.88 2.80 2.78 2.79 2.87 2.93 2.85 2.83 2.83
0.41 0.63 0.83 0.84 0.81 0.55 0.23 0.38 0.52 0.38 0.30 0.31 0.32 0.29 0.30 0.35 0.41 0.50 0.64 0.73 0.76 0.68 0.64 0.70 0.87 0.95 1.03 1.11 1.19 1.32 1.55 1.69 2.04 2.37 2.35 2.26 2.31 2.36 2.42 2.48 2.48 2.47 2.54 2.68 2.91 2.89 2.79 2.77 2.87
0.34 0.55 0.87 1.00 0.88 0.57 0.38 0.55 0.59 0.43 0.35 0.31 0.30 0.33 0.38 0.42 0.48 0.66 0.84 0.90 0.90 0.81 0.75 0.80 0.93 0.99 1.01 1.04 1.06 1.14 1.23 1.30 1.46 1.68 1.80 1.82 1.87 2.09 2.21 2.32 2.28 2.30 2.38 2.45 2.57 2.61 2.64 2.60 2.59
0.30 0.36 0.42 0.62 0.59 0.63 0.59 0.67 0.60 0.40 0.38 0.38 0.40 0.45 0.56 0.65 0.70 0.83 0.99 1.07 0.99 0.88 0.81 0.85 0.96 1.07 1.05 1.08 1.12 1.17 1.16 1.14 1.23 1.25 1.39 1.58 1.62 1.67 1.81 1.92 2.01 2.12 2.19 2.27 2.42 2.48 2.47 2.50 2.49
0.22 0.28 0.44 0.66 0.85 0.89 0.72 0.73 0.71 0.58 0.54 0.50 0.54 0.60 0.72 0.83 0.91 1.00 1.14 1.19 1.07 0.93 0.85 0.87 0.95 1.06 1.23 1.35 1.30 1.26 1.30 1.32 1.51 1.52 1.38 1.36 1.52 1.58 1.61 1.67 1.74 1.88 2.01 2.11 2.19 2.30 2.41 2.41 2.41
0.26 0.36 0.51 0.69 0.72 0.99 1.12 1.02 0.80 0.72 0.71 0.73 0.78 0.82 0.87 1.00 1.02 1.01 1.12 1.19 1.10 0.91 0.84 0.81 0.86 0.96 1.10 1.15 1.20 1.17 1.23 1.32 1.57 1.77 1.70 1.51 1.49 1.51 1.48 1.45 1.52 1.66 1.77 1.88 2.01 2.06 2.08 2.11 2.24
0.35 0.46 0.68 1.04 0.99 0.91 1.11 1.10 0.78 0.71 0.74 0.76 0.77 0.76 0.80 0.91 0.91 0.96 1.02 0.98 0.90 0.77 0.70 0.69 0.71 0.82 0.95 0.96 1.02 1.09 1.10 1.19 1.30 1.41 1.43 1.34 1.24 1.20 1.26 1.31 1.33 1.40 1.57 1.69 1.73 1.74 1.77 1.83 1.95